�N����,����,�~����,�C��,���x,�C��,����,���ϕ���,�ő�u�ԕ���,�ő厞����,���˗�,�I�_���x,�n�����x,�ő啗���N��,DTYPE
"20/04/22","00:10",0.0,9.2,87.1,1004.3,317.2,2.0,3.5,316.3,0.00,7.2,13.5,"00:09:52",1
"20/04/22","00:20",0.0,9.1,87.5,1004.8,308.2,2.3,3.2,304.1,0.00,7.2,13.6,"00:11:20",1
"20/04/22","00:30",0.0,8.9,87.7,1003.8,289.8,1.5,1.9,306.9,0.00,7.0,13.4,"00:20:08",1
"20/04/22","00:40",0.0,8.7,88.1,1004.5,314.3,2.3,3.1,320.9,0.00,6.9,13.4,"00:34:00",1
"20/04/22","00:50",0.0,8.6,88.5,1004.1,305.8,1.7,3.1,320.0,0.00,6.8,13.4,"00:41:12",1
"20/04/22","01:00",0.0,8.7,88.8,1004.3,297.1,1.5,2.5,313.7,0.00,7.0,13.3,"00:50:24",1
"20/04/22","01:10",0.0,9.3,89.1,1003.8,301.3,2.0,3.5,317.6,0.00,7.6,13.2,"01:05:28",1
"20/04/22","01:20",0.0,9.6,89.1,1004.3,294.1,1.6,2.6,305.9,0.00,7.9,13.3,"01:18:00",1
"20/04/22","01:30",0.0,9.7,89.1,1004.1,300.7,1.7,2.8,288.1,0.00,8.0,13.2,"01:23:28",1
"20/04/22","01:40",0.0,9.9,88.7,1004.1,320.2,3.0,5.4,330.0,0.00,8.2,13.3,"01:30:48",1
"20/04/22","01:50",0.0,9.8,88.4,1004.5,302.5,2.0,2.9,329.2,0.00,8.0,13.3,"01:48:24",1
"20/04/22","02:00",0.0,9.8,88.0,1004.5,323.2,2.6,4.5,342.6,0.00,7.9,13.4,"01:54:48",1
"20/04/22","02:10",0.0,9.8,87.7,1003.8,326.7,2.8,3.9,331.6,0.00,7.9,13.2,"02:02:08",1
"20/04/22","02:20",0.0,9.8,87.3,1004.3,320.5,2.3,3.6,323.4,0.00,7.8,13.1,"02:10:08",1
"20/04/22","02:30",0.0,9.8,87.1,1004.5,292.8,1.6,3.3,328.6,0.00,7.8,13.1,"02:20:08",1
"20/04/22","02:40",0.0,9.7,86.9,1003.8,305.1,1.6,2.4,319.3,0.00,7.7,13.2,"02:38:16",1
"20/04/22","02:50",0.0,9.7,86.7,1004.5,310.8,1.6,2.2,324.1,0.00,7.6,13.1,"02:41:20",1
"20/04/22","03:00",0.0,9.7,86.7,1004.3,309.9,1.7,2.6,310.6,0.00,7.6,13.2,"02:55:04",1
"20/04/22","03:10",0.0,9.7,86.7,1004.5,284.6,1.5,2.0,305.9,0.00,7.6,13.1,"03:05:28",1
"20/04/22","03:20",0.0,9.8,86.7,1004.8,295.4,1.6,1.9,304.2,0.00,7.7,13.0,"03:11:28",1
"20/04/22","03:30",0.0,9.8,86.8,1004.3,326.9,1.3,2.5,320.3,0.00,7.7,13.2,"03:21:44",1
"20/04/22","03:40",0.0,9.6,86.8,1004.5,291.5,1.1,1.7,286.4,0.00,7.6,13.1,"03:30:16",1
"20/04/22","03:50",0.0,9.6,87.1,1004.8,307.6,1.8,2.4,327.2,0.00,7.6,12.8,"03:49:52",1
"20/04/22","04:00",0.0,9.5,87.4,1004.3,322.1,1.6,2.1,328.0,0.00,7.6,13.1,"03:53:44",1
"20/04/22","04:10",0.0,9.5,87.6,1004.8,302.5,1.3,2.5,327.4,0.00,7.6,13.0,"04:02:16",1
"20/04/22","04:20",0.0,9.3,87.9,1004.5,291.7,1.5,1.8,323.4,0.00,7.4,13.0,"04:12:16",1
"20/04/22","04:30",0.0,9.3,88.2,1005.0,295.8,1.0,1.7,316.5,0.00,7.5,13.2,"04:21:20",1
"20/04/22","04:40",0.0,9.5,88.5,1004.3,295.9,1.1,1.9,252.4,0.00,7.7,13.1,"04:39:44",1
"20/04/22","04:50",0.0,9.7,88.6,1004.5,274.7,0.8,2.5,247.1,0.00,8.0,13.1,"04:40:08",1
"20/04/22","05:00",0.0,9.8,88.7,1005.0,275.9,1.2,1.9,288.5,0.00,8.1,13.1,"04:54:16",1
"20/04/22","05:10",0.0,9.6,88.1,1005.0,313.1,1.8,3.2,347.3,0.00,7.8,13.1,"05:07:52",1
"20/04/22","05:20",0.0,9.9,86.4,1005.0,317.7,1.8,3.1,350.9,0.00,7.8,13.1,"05:13:04",1
"20/04/22","05:30",0.0,10.1,83.5,1004.8,308.1,2.2,4.7,324.6,0.00,7.5,12.9,"05:24:08",1
"20/04/22","05:40",0.0,10.4,79.6,1005.0,331.7,2.1,4.3,325.2,0.00,7.1,13.0,"05:39:16",1
"20/04/22","05:50",0.0,10.5,74.8,1005.5,303.6,2.1,3.9,324.2,0.00,6.3,12.9,"05:45:28",1
"20/04/22","06:00",0.0,10.6,71.8,1005.7,261.9,1.5,3.3,242.1,0.00,5.8,13.0,"05:54:40",1
"20/04/22","06:10",0.0,10.6,69.8,1005.7,273.9,1.5,2.4,264.4,0.00,5.4,13.0,"06:04:24",1
"20/04/22","06:20",0.0,10.7,69.1,1005.5,250.9,0.8,1.9,308.8,0.00,5.3,12.8,"06:13:28",1
"20/04/22","06:30",0.0,10.5,68.4,1005.5,264.3,1.6,3.4,247.5,0.02,5.0,12.9,"06:28:58",1
"20/04/22","06:40",0.0,10.7,66.1,1005.2,317.5,2.6,5.0,322.6,0.05,4.7,13.1,"06:30:02",1
"20/04/22","06:50",0.0,10.8,63.9,1005.7,327.4,4.0,7.5,322.5,0.05,4.3,12.9,"06:41:04",1
"20/04/22","07:00",0.0,11.0,62.4,1005.2,323.9,4.0,6.8,333.8,0.07,4.1,12.9,"06:50:16",1
"20/04/22","07:10",0.0,11.2,62.1,1005.7,333.2,3.9,6.4,325.8,0.10,4.3,13.1,"07:04:56",1
"20/04/22","07:20",0.0,11.5,61.6,1005.7,330.1,3.7,5.9,348.2,0.13,4.4,13.1,"07:14:00",1
"20/04/22","07:30",0.0,11.1,61.7,1005.7,331.8,4.5,8.8,342.4,0.09,4.1,12.8,"07:25:52",1
"20/04/22","07:40",0.0,10.9,61.3,1006.0,324.7,3.7,8.7,319.0,0.09,3.8,13.1,"07:39:44",1
"20/04/22","07:50",0.0,11.1,60.8,1006.0,320.7,3.9,6.7,335.3,0.11,3.9,12.8,"07:40:16",1
"20/04/22","08:00",0.0,11.1,59.9,1006.0,323.5,3.6,8.2,347.9,0.13,3.7,12.9,"07:52:42",1
"20/04/22","08:10",0.0,11.4,58.7,1006.4,332.7,3.1,7.1,343.9,0.18,3.6,12.9,"08:00:24",1
"20/04/22","08:20",0.0,11.4,58.7,1006.2,337.4,3.6,9.3,351.2,0.19,3.6,12.9,"08:15:36",1
"20/04/22","08:30",0.0,11.5,58.9,1006.2,338.1,3.4,6.5,328.7,0.20,3.8,13.1,"08:21:44",1
"20/04/22","08:40",0.0,11.6,58.5,1006.0,322.9,3.2,6.4,344.5,0.21,3.8,13.1,"08:39:44",1
"20/04/22","08:50",0.0,11.7,57.1,1006.2,317.1,3.0,7.1,342.7,0.18,3.5,13.2,"08:40:40",1
"20/04/22","09:00",0.0,11.6,56.1,1006.2,327.2,3.2,6.4,343.1,0.19,3.2,13.1,"08:57:12",1
"20/04/22","09:10",0.0,11.6,56.2,1006.4,330.3,3.6,6.3,342.7,0.22,3.2,13.2,"09:01:36",1
"20/04/22","09:20",0.0,11.6,55.6,1006.4,335.6,3.7,6.4,339.4,0.24,3.1,13.2,"09:19:36",1
"20/04/22","09:30",0.0,11.8,54.4,1007.1,312.1,3.5,7.8,330.0,0.25,2.9,13.4,"09:24:08",1
"20/04/22","09:40",0.0,12.1,55.4,1006.9,289.0,2.3,4.9,305.9,0.23,3.5,13.3,"09:35:36",1
"20/04/22","09:50",0.0,12.0,54.3,1006.7,310.3,3.1,5.5,347.0,0.22,3.1,13.3,"09:49:28",1
"20/04/22","10:00",0.0,12.0,54.6,1006.7,304.8,2.5,4.4,332.6,0.19,3.2,13.6,"09:53:12",1
"20/04/22","10:10",0.0,11.6,54.5,1006.7,304.7,3.4,7.8,299.9,0.13,2.8,13.7,"10:06:00",1
"20/04/22","10:20",0.0,12.1,54.8,1006.4,306.1,2.2,4.7,309.1,0.22,3.3,13.6,"10:10:56",1
"20/04/22","10:30",0.0,12.3,52.6,1006.7,286.6,2.1,3.5,286.7,0.23,2.9,13.6,"10:22:24",1
"20/04/22","10:40",0.0,12.6,49.4,1006.2,285.6,2.7,5.4,231.2,0.29,2.3,13.6,"10:31:12",1
"20/04/22","10:50",0.0,13.0,46.0,1006.4,307.6,2.6,5.7,258.1,0.32,1.7,13.7,"10:49:04",1
"20/04/22","11:00",0.0,13.3,44.0,1006.0,309.4,3.6,10.1,335.8,0.41,1.4,13.8,"10:56:00",1
"20/04/22","11:10",0.0,13.7,44.4,1006.2,303.8,3.5,7.0,334.6,0.44,1.8,13.8,"11:00:16",1
"20/04/22","11:20",0.0,13.8,40.6,1005.7,278.4,2.5,4.8,254.7,0.39,0.7,13.9,"11:19:52",1
"20/04/22","11:30",0.0,14.1,39.5,1005.0,281.2,3.4,5.7,344.6,0.54,0.6,14.2,"11:21:28",1
"20/04/22","11:40",0.0,13.9,39.9,1005.2,284.5,2.8,6.6,322.2,0.38,0.5,14.2,"11:31:12",1
"20/04/22","11:50",0.0,13.7,42.2,1005.2,328.2,3.1,6.5,349.3,0.35,1.1,14.2,"11:44:48",1
"20/04/22","12:00",0.0,13.6,41.3,1005.2,320.7,3.4,7.4,334.0,0.26,0.7,14.5,"11:56:00",1
"20/04/22","12:10",0.0,13.5,41.0,1005.7,330.9,3.4,5.8,343.4,0.30,0.6,14.4,"12:07:12",1
"20/04/22","12:20",0.0,13.5,39.9,1005.5,332.9,4.7,8.9,328.4,0.38,0.2,14.4,"12:13:04",1
"20/04/22","12:30",0.0,14.3,41.1,1005.2,305.9,3.6,6.2,334.0,0.50,1.3,14.4,"12:20:48",1
"20/04/22","12:40",0.0,14.0,39.6,1005.5,326.9,3.4,7.5,337.1,0.38,0.5,14.7,"12:32:00",1
"20/04/22","12:50",0.0,13.7,41.2,1005.5,337.7,4.1,11.9,339.3,0.42,0.8,14.8,"12:49:12",1
"20/04/22","13:00",0.0,13.9,43.1,1005.0,323.8,3.7,5.9,333.3,0.43,1.6,14.9,"12:52:56",1
"20/04/22","13:10",0.0,13.3,43.3,1005.5,336.0,4.1,8.1,344.2,0.33,1.1,14.7,"13:03:12",1
"20/04/22","13:20",0.0,12.8,44.1,1005.2,340.5,4.1,7.0,341.5,0.32,0.9,14.6,"13:16:00",1
"20/04/22","13:30",0.0,12.9,44.2,1005.2,336.3,3.6,8.7,342.3,0.30,1.1,14.8,"13:25:28",1
"20/04/22","13:40",0.0,12.4,44.7,1005.7,335.6,4.7,8.8,333.5,0.28,0.8,14.7,"13:31:28",1
"20/04/22","13:50",0.0,12.7,45.9,1006.0,335.5,3.7,7.8,336.0,0.35,1.4,14.7,"13:48:16",1
"20/04/22","14:00",0.0,13.1,46.1,1006.0,328.8,3.0,5.5,343.6,0.31,1.8,14.8,"13:54:56",1
"20/04/22","14:10",0.0,12.6,47.2,1006.0,332.0,3.2,7.5,330.7,0.25,1.7,14.5,"14:01:20",1
"20/04/22","14:20",0.0,12.7,46.7,1005.5,335.6,4.0,8.3,323.0,0.42,1.6,14.8,"14:19:28",1
"20/04/22","14:30",0.0,13.1,45.2,1005.5,325.8,4.2,10.3,303.0,0.44,1.5,14.7,"14:29:04",1
"20/04/22","14:40",0.0,12.9,44.6,1005.0,328.3,5.6,10.9,324.2,0.46,1.2,14.9,"14:39:28",1
"20/04/22","14:50",0.0,13.3,43.0,1005.5,325.4,4.9,10.3,336.6,0.45,1.0,15.0,"14:43:12",1
"20/04/22","15:00",0.0,13.3,42.1,1005.2,333.9,4.5,8.5,327.6,0.42,0.7,15.0,"14:50:32",1
"20/04/22","15:10",0.0,13.5,44.0,1005.2,326.5,3.6,7.4,337.5,0.34,1.5,15.0,"15:08:48",1
"20/04/22","15:20",0.0,13.2,42.2,1005.0,334.2,5.2,11.0,340.3,0.41,0.7,15.1,"15:10:40",1
"20/04/22","15:30",0.0,13.2,39.6,1005.0,327.7,4.7,7.7,309.6,0.38,-0.2,15.1,"15:28:40",1
"20/04/22","15:40",0.0,13.4,42.1,1005.0,335.6,4.4,6.7,332.3,0.35,0.8,15.2,"15:32:24",1
"20/04/22","15:50",0.0,13.1,43.6,1005.0,343.1,4.0,8.2,349.5,0.32,1.0,15.0,"15:46:40",1
"20/04/22","16:00",0.0,13.3,45.8,1005.0,345.0,3.6,7.1,323.5,0.29,1.9,15.1,"15:54:08",1
"20/04/22","16:10",0.0,13.1,45.0,1005.0,346.1,3.7,6.4,346.5,0.29,1.5,15.0,"16:01:52",1
"20/04/22","16:20",0.0,13.1,43.8,1005.5,347.0,3.7,6.2,349.8,0.26,1.1,15.0,"16:12:24",1
"20/04/22","16:30",0.0,13.1,44.7,1005.2,341.1,3.4,7.4,338.3,0.22,1.4,14.9,"16:24:48",1
"20/04/22","16:40",0.0,12.5,45.5,1005.2,346.7,3.2,6.7,342.1,0.14,1.1,15.0,"16:35:52",1
"20/04/22","16:50",0.0,11.9,47.9,1005.5,343.6,2.7,6.2,345.3,0.06,1.3,15.2,"16:43:28",1
"20/04/22","17:00",0.0,11.6,48.3,1005.7,349.2,2.8,7.5,333.9,0.07,1.1,14.9,"16:59:44",1
"20/04/22","17:10",0.0,11.5,48.7,1005.2,344.9,2.8,8.1,326.9,0.06,1.1,14.7,"17:00:08",1
"20/04/22","17:20",0.0,11.2,50.5,1005.5,342.1,2.6,4.9,323.8,0.04,1.3,14.8,"17:13:12",1
"20/04/22","17:30",0.0,11.0,52.8,1005.2,344.0,2.3,5.0,331.3,0.03,1.8,14.8,"17:21:36",1
"20/04/22","17:40",0.0,10.7,53.9,1005.5,344.9,2.8,6.6,332.9,0.02,1.8,14.6,"17:34:48",1
"20/04/22","17:50",0.0,10.3,55.5,1005.2,347.8,3.6,7.3,350.3,0.01,1.8,14.7,"17:44:40",1
"20/04/22","18:00",0.0,10.0,57.0,1005.5,335.8,3.9,9.1,344.0,0.01,1.9,14.4,"17:51:20",1
"20/04/22","18:10",0.0,9.9,58.0,1005.7,327.2,3.0,5.6,340.6,0.00,2.1,14.3,"18:08:16",1
"20/04/22","18:20",0.0,9.8,58.9,1005.7,329.2,2.3,4.3,321.3,0.00,2.2,14.4,"18:11:28",1
"20/04/22","18:30",0.0,9.6,59.4,1005.7,308.0,2.6,4.4,320.1,0.00,2.1,14.2,"18:25:04",1
"20/04/22","18:40",0.0,9.3,59.9,1005.7,284.3,2.5,3.7,309.2,0.00,2.0,14.3,"18:37:28",1
"20/04/22","18:50",0.0,9.1,60.6,1006.0,276.7,2.2,3.5,259.5,0.00,1.9,14.4,"18:44:48",1
"20/04/22","19:00",0.0,9.0,60.7,1006.0,308.0,2.3,4.3,338.5,0.00,1.9,13.9,"18:52:56",1
"20/04/22","19:10",0.0,8.8,61.3,1006.2,279.9,2.3,3.5,264.2,0.00,1.8,13.9,"19:04:32",1
"20/04/22","19:20",0.0,8.5,62.1,1006.2,309.2,2.1,3.2,331.2,0.00,1.7,13.8,"19:14:32",1
"20/04/22","19:30",0.0,8.3,62.7,1006.4,305.2,1.7,2.8,319.3,0.00,1.7,13.9,"19:22:40",1
"20/04/22","19:40",0.0,8.2,64.8,1006.4,320.9,2.1,2.9,323.4,0.00,2.0,13.8,"19:38:16",1
"20/04/22","19:50",0.0,7.7,66.7,1006.7,291.8,1.3,2.8,318.4,0.00,1.9,13.6,"19:40:16",1
"20/04/22","20:00",0.0,7.4,67.9,1006.9,296.0,1.2,2.7,327.3,0.00,1.9,13.8,"19:59:04",1
"20/04/22","20:10",0.0,7.6,68.6,1006.9,334.2,1.5,2.6,350.4,0.00,2.2,13.5,"20:04:32",1
"20/04/22","20:20",0.0,7.3,69.5,1006.9,334.1,1.7,2.7,340.4,0.00,2.1,13.6,"20:16:16",1
"20/04/22","20:30",0.0,6.7,71.3,1006.9,328.2,1.8,2.8,319.3,0.00,1.9,13.3,"20:26:32",1
"20/04/22","20:40",0.0,6.2,72.6,1007.1,315.7,1.8,2.6,319.7,0.00,1.7,13.3,"20:35:44",1
"20/04/22","20:50",0.0,6.0,73.9,1006.9,297.1,2.0,2.4,311.8,0.00,1.7,13.2,"20:46:00",1
"20/04/22","21:00",0.0,6.0,75.0,1007.1,320.7,2.0,2.4,323.0,0.00,2.0,13.0,"20:57:12",1
"20/04/22","21:10",0.0,6.1,76.1,1006.9,318.7,1.5,2.6,326.7,0.00,2.3,13.1,"21:08:32",1
"20/04/22","21:20",0.0,6.2,77.3,1007.1,321.8,1.6,2.5,321.8,0.00,2.6,13.0,"21:10:24",1
"20/04/22","21:30",0.0,6.2,78.2,1007.1,323.2,1.3,2.6,321.6,0.00,2.7,13.0,"21:22:00",1
"20/04/22","21:40",0.0,6.2,79.0,1006.9,299.8,1.7,3.1,318.8,0.00,2.9,13.0,"21:30:48",1
"20/04/22","21:50",0.0,6.2,79.8,1006.9,307.9,1.8,2.8,316.8,0.00,3.0,12.9,"21:48:48",1
"20/04/22","22:00",0.0,6.3,80.6,1006.9,308.9,1.7,2.1,315.8,0.00,3.3,13.0,"21:52:08",1
"20/04/22","22:10",0.0,6.4,81.2,1006.9,319.3,2.2,3.2,327.6,0.00,3.5,12.7,"22:09:12",1
"20/04/22","22:20",0.0,6.6,81.1,1006.9,314.6,2.2,3.2,313.2,0.00,3.6,12.9,"22:10:32",1
"20/04/22","22:30",0.0,6.7,80.9,1007.6,322.2,2.5,3.5,309.8,0.00,3.7,12.7,"22:22:48",1
"20/04/22","22:40",0.0,6.7,80.5,1007.1,322.7,2.5,3.3,330.4,0.00,3.6,12.7,"22:32:16",1
"20/04/22","22:50",0.0,6.7,80.1,1006.9,319.2,2.6,3.5,308.2,0.00,3.6,12.7,"22:41:52",1
"20/04/22","23:00",0.0,6.5,80.1,1007.1,297.8,2.0,2.7,309.5,0.00,3.4,12.6,"22:50:48",1
"20/04/22","23:10",0.0,6.3,80.3,1006.7,313.6,1.8,2.6,317.9,0.00,3.2,12.7,"23:01:36",1
"20/04/22","23:20",0.0,6.2,80.4,1007.1,322.8,2.1,3.4,327.3,0.00,3.1,12.3,"23:19:44",1
"20/04/22","23:30",0.0,6.2,80.4,1007.4,326.2,2.0,3.7,336.7,0.00,3.1,12.6,"23:20:08",1
"20/04/22","23:40",0.0,5.9,80.3,1006.7,320.9,2.0,2.8,312.8,0.00,2.8,12.4,"23:37:20",1
"20/04/22","23:50",0.0,5.6,80.8,1006.9,318.8,2.6,3.2,313.4,0.00,2.6,12.4,"23:47:12",1
"20/04/22","24:00",0.0,5.6,81.5,1006.9,317.0,2.8,4.3,321.0,0.00,2.7,12.2,"23:57:30",1
